Flag for French Polynesia Weather past 2 weeks in Gambier Islands, French Polynesia

Now
77 °F

Warm.


Feels Like: 79 °F
Forecast: 78 / 83 °F
Wind: 8 mph from North

Location: Rikitea

Current Time: Jan 29, 2015 at 12:26:38 AM

Latest Report: Jan 28, 2015 at 11:00 PM


Visibility: N/A

Pressure: 30.04 "Hg

Humidity: 90%

Dew point: 74 °F

Location of Gambier IslandsLocation

Historic Weather in Gambier Islands — Graph

°F

Gambier Islands temperature yesterday

Maximum temperature yesterday: 81 °F (at 10:00 AM)
Minimum temperature yesterday: 74 °F (at 4:00 AM)
Average temperature yesterday: 78 °F

Past Weeks' High & Low Weather Summary

 TemperatureHumidityPressure
High84 °F (Jan 14, 2:00 PM)97% (Jan 20, 9:00 PM)30.05 "Hg (Jan 20, 9:00 PM)
Low72 °F (Jan 16, 8:00 AM)65% (Jan 25, 1:00 PM)29.79 "Hg (Jan 27, 3:00 AM)
Average77 °F86%29.91 "Hg
* Reported Jan 13 11:00 PM — Jan 28 11:00 PM, Gambier Islands, Weather by CustomWeather, © 2014

Note: Actual official high and low records may vary slightly from our data, if they occured in-between our weather recording intervals... More about our weather records

Advertising

Gambier Islands weather history for previous 24 hours

 ConditionsComfort  
Time TempWeatherWind HumidityBarometerVisibility
11:00 PM
Jan 28
77 °FWarm.8 mph90%30.04 "HgN/A
10:00 PM77 °FWarm.7 mph92%30.05 "HgN/A
9:00 PM78 °FWarm.7 mph93%30.03 "HgN/A
8:00 PM78 °FWarm.6 mph93%30.02 "HgN/A
7:00 PM77 °FWarm.5 mph92%30.01 "HgN/A
5:00 PM78 °FOvercast.5 mph91%29.98 "Hg6 mi
4:00 PM80 °FOvercast.5 mph87%29.98 "Hg12 mi
3:00 PM81 °FOvercast.5 mph83%29.97 "Hg12 mi
2:00 PM80 °FOvercast.3 mph85%29.98 "Hg12 mi
1:00 PM80 °FOvercast.5 mph84%29.98 "Hg12 mi
12:00 PM78 °FOvercast.7 mph91%30.00 "Hg12 mi
11:00 AM81 °FOvercast.7 mph81%30.01 "Hg19 mi
10:00 AM81 °FPartly sunny.7 mph79%30.02 "Hg25 mi
9:00 AM80 °FScattered clouds.8 mph78%30.00 "Hg25 mi
8:00 AM79 °FScattered clouds.7 mph81%29.98 "Hg19 mi
7:00 AM78 °FScattered clouds.8 mph84%29.97 "Hg19 mi
6:00 AM75 °FPartly sunny.9 mph90%29.96 "Hg19 mi
5:00 AM74 °FMild.7 mph89%29.95 "HgN/A
4:00 AM74 °FMild.6 mph91%29.94 "HgN/A
3:00 AM75 °FMild.9 mph90%29.92 "HgN/A
2:00 AM76 °FMild.12 mph88%29.92 "HgN/A
1:00 AM76 °FMild.9 mph92%29.94 "HgN/A
12:00 AM76 °FMild.8 mph92%29.95 "HgN/A
Weather by CustomWeather, © 2014

See weather overviewHow to use our weather pages